Location: Edemissen
(51.7689°N, 9.8634°E)
Time: 22:01:35
(UTC+00:00)

NORSAT 1 - Visible Passes

Search period start: 18 November 2025 00:00
Search period end: 28 November 2025 00:00
Orbit: 528 x 540 km, 97.4° (Epoch: 18 November)

Date Brightness Start Highest point End Pass type
(mag) Time Alt. Az. Time Alt. Az. Time Alt. Az.
18 Nov ? 17:07:29 10° N 17:11:16 54° WNW 17:15:01 10° SSW visible
19 Nov ? 16:58:21 10° N 17:02:11 67° WNW 17:06:00 10° SSW visible
20 Nov ? 16:49:12 10° NNE 16:53:05 84° WNW 16:56:56 10° SSW visible
20 Nov ? 18:25:35 10° NW 18:26:53 11° NW 18:28:10 10° WNW visible
21 Nov ? 16:40:04 10° NNE 16:43:57 79° ESE 16:47:48 10° S visible
21 Nov ? 18:15:53 10° NNW 18:17:51 14° WNW 18:19:48 10° W visible
22 Nov ? 16:30:56 10° NNE 16:34:47 63° E 16:38:36 10° S visible
22 Nov ? 18:06:23 10° NNW 18:08:48 16° WNW 18:11:13 10° W visible
23 Nov ? 16:21:48 10° NNE 16:25:35 50° E 16:29:21 10° S visible
23 Nov ? 17:56:56 10° NNW 17:59:43 19° WNW 18:02:29 10° WSW visible
24 Nov ? 16:12:41 10° NNE 16:16:21 40° E 16:20:00 10° S visible
24 Nov ? 17:47:32 10° N 17:50:37 23° WNW 17:53:40 10° WSW visible
25 Nov ? 16:03:35 10° NNE 16:07:06 32° E 16:10:36 10° SSE visible
25 Nov ? 17:38:09 10° N 17:41:27 27° WNW 17:44:45 10° SW visible
26 Nov ? 15:54:29 10° NE 15:57:49 26° E 16:01:06 10° SSE visible
26 Nov ? 17:28:48 10° N 17:32:17 33° WNW 17:35:46 10° SW visible
27 Nov ? 17:19:27 10° N 17:23:05 40° WNW 17:26:43 10° SW visible
